Regional Weather Roundup
Issued by NWS Sioux Falls, SD

Home | Current Version | Previous Version | Graphics & Text | Print | Product List | Glossary On
Versions: 1 2 3 4 5 6 7 8 9 10 11 12 13 14 15 16 17 18 19 20 21 22 23 24 25 26 27 28 29 30 31 32 33 34 35 36 37 38 39 40 41 42 43 44 45 46 47 48 49 50
197
ASUS43 KFSD 071710
RWRFSD

WEATHER ROUNDUP FOR SE SOUTH DAKOTA/SW MINNESOTA/NW IOWA
NATIONAL WEATHER SERVICE SIOUX FALLS SD
1100 AM CST SUN FEB 07 2016

NOTE: "FAIR" INDICATES FEW OR NO CLOUDS BELOW 12,000 FEET WITH NO
SIGNIFICANT WEATHER AND OR OBSTRUCTIONS TO VISIBILITY.


SDZ038>040-050-052>070-071800-
SOUTHEAST SOUTH DAKOTA

CITY           SKY/WX    TMP DP  RH WIND       PRES   REMARKS
BROOKINGS      MOSUNNY   34  26  72 W31G37    29.77R WCI  20
CHAMBERLAIN    CLOUDY    34  26  72 NW30G39   29.98R WCI  20
HURON          LGT SNOW  33  29  85 NW28G40   29.86R FOG     WCI  20
MADISON        FAIR      36  28  75 NW26G39   29.81R
MITCHELL       CLOUDY    38  27  64 NW32G47   29.91R
SIOUX FALLS    MOSUNNY   38  26  62 NW23G35   29.83S
WINNER         LGT RAIN  39  18  42 NW32G47   30.00R
YANKTON        SUNNY    N/A N/A N/A NW35G41   29.92F
$$

MNZ071-072-080-081-089-090-097-098-071800-
SOUTHWEST MINNESOTA

CITY           SKY/WX    TMP DP  RH WIND       PRES   REMARKS
FAIRMONT       PTSUNNY   37  27  65 W22G32    29.76R
JACKSON        MOSUNNY   37  27  65 W21       29.78R
LUVERNE        SUNNY     37  28  70 W24G30    29.82F
MARSHALL       PTSUNNY   37  26  64 W28G35    29.73R
MONTEVIDEO     CLOUDY    41  28  60 NW17G25   29.71S
PIPESTONE      PTSUNNY   39  21  48 NW18G29   29.78S
REDWOOD FALLS  SUNNY     38  27  64 W22G32    29.71S
TRACY          SUNNY     38  28  67 W14G25    29.75S
WINDOM         SUNNY     37  28  70 W18       29.76S
WORTHINGTON    MOSUNNY   36  25  64 W23G29    29.79F
$$

IAZ001>003-012>014-020>022-031-032-NEZ013-014-SDZ071-071800-
NORTHWEST IOWA

CITY           SKY/WX    TMP DP  RH WIND       PRES   REMARKS
CHEROKEE       MOSUNNY   37  30  74 W15G25    29.89S
DENISON        MOSUNNY   37  28  70 W20       29.91S
ESTHERVILLE    MOSUNNY   36  28  73 W21       29.79R
LE MARS        SUNNY     39  32  75 W17       29.92S
ORANGE CITY    SUNNY     37  30  75 W24G31    29.87S
SHELDON        CLOUDY    36  28  75 W20       29.83S
SIOUX CITY     MOSUNNY   42  27  55 W22       29.93S
SPENCER        PTSUNNY   37  27  67 W24       29.83R
STORM LAKE       N/A     36  32  87 W23G29    29.88R
$$

ABBREVIATIONS USED IN REMARKS
   TC - TEMPERATURE IN CELSIUS
  WCI - WIND CHILL INDEX
   HX - HEAT INDEX
  VSB - VISIBILITY





USA.gov is the U.S. government's official web portal to all federal, state and local government web resources and services.